Theta_e
320 321 321 321 320 319 317 317 317 318 319 318 318 318 318 319 321 319 320 320 321 321 322 321 322 323 321 321 325 322 319 316 312 316 321 325 321 325 324 325 326 326 325
319 319 318 317 317 316 315 315 315 315 317 317 317 317 317 318 319 318 318 321 320 321 321 321 320 320 322 325 321 321 319 324 316 315 318 320 320 323 325 323 326 327 326
317 315 315 315 315 313 313 313 314 314 315 315 314 315 316 318 320 318 319 321 321 322 322 320 319 321 322 319 321 320 325 323 320 315 314 316 317 323 322 325 326 327 324
314 313 312 312 312 312 313 313 313 314 313 312 314 314 316 319 319 315 318 322 322 321 321 321 320 320 321 321 321 321 319 319 318 311 311 312 318 319 322 319 321 327 321
311 310 310 311 312 312 312 312 313 313 311 312 312 313 316 319 315 316 319 320 321 321 320 320 321 320 317 318 321 320 319 317 312 311 312 316 314 315 315 321 317 321 321
310 309 310 310 310 310 310 309 311 311 311 311 312 313 316 319 310 310 314 318 320 320 319 320 321 317 317 314 314 314 313 312 311 312 317 316 315 317 320 317 318 315 311
309 309 309 308 307 309 309 309 309 310 311 312 312 314 316 316 308 306 309 319 321 320 321 321 321 319 318 318 314 313 314 314 315 321 317 315 316 318 319 317 318 317 313
309 309 308 307 307 308 308 307 309 310 310 311 313 315 315 316 307 305 306 320 322 322 321 321 321 319 318 317 314 315 317 320 322 323 322 320 317 319 317 321 317 315 314
309 308 308 309 308 306 306 306 308 309 309 311 313 312 314 315 305 304 308 319 320 321 320 320 317 319 306 307 313 313 317 320 312 309 310 308 306 309 315 318 313 315 310
308 309 309 310 308 306 308 307 308 309 309 311 314 314 309 310 304 303 307 319 320 319 322 322 308 316 304 306 313 313 317 321 322 322 321 314 315 314 311 326 321 314 311
311 311 309 310 309 306 308 307 307 309 311 313 313 314 312 308 307 303 301 321 316 315 315 318 316 302 300 301 302 314 317 322 318 321 320 320 318 319 318 323 326 321 314
312 312 311 309 307 305 306 307 310 311 311 311 310 309 310 308 304 304 299 303 311 317 315 318 315 300 299 300 306 300 302 311 326 324 320 318 318 319 322 323 329 328 327
312 312 310 309 307 307 306 306 306 309 309 307 306 305 308 306 307 301 299 299 302 315 317 304 298 297 298 302 299 299 298 316 320 323 324 324 324 324 327 327 328 329 328
312 312 310 309 305 307 306 306 305 305 305 303 306 306 307 305 305 309 312 311 305 313 308 312 309 305 301 310 308 308 315 319 317 318 321 325 324 323 320 320 318 319 319
312 312 310 308 307 307 307 307 306 307 302 305 305 303 302 303 303 298 298 310 313 311 315 316 316 315 314 314 314 314 314 315 316 318 318 319 320 320 319 320 318 317 316
312 309 308 307 307 306 306 307 298 298 296 294 293 296 301 297 294 293 297 295 295 297 313 312 313 314 312 313 313 313 314 311 316 317 317 317 315 315 317 318 318 315 315
313 313 309 306 307 306 306 306 305 304 298 297 293 293 292 292 292 294 295 294 293 297 314 314 312 313 313 314 315 314 313 314 315 315 316 317 318 317 313 313 315 315 315
314 303 310 308 307 307 307 306 306 305 306 308 298 298 294 292 293 294 294 296 311 307 312 310 312 315 313 314 314 315 314 315 313 313 315 316 316 317 315 315 315 315 316
312 312 312 311 309 306 307 307 307 306 306 306 308 302 299 295 295 295 296 314 315 314 313 312 313 314 312 314 315 316 320 316 314 312 313 315 316 316 316 315 315 302 308
313 305 303 311 310 310 308 307 307 306 306 306 307 309 311 306 310 314 314 316 317 317 315 314 313 314 314 315 316 317 318 318 319 319 318 315 314 316 315 315 315 314 313
312 312 306 311 310 310 310 308 308 307 306 305 307 306 288 305 307 309 307 310 316 317 318 317 315 315 315 316 315 316 317 318 318 318 318 319 318 315 316 316 315 315 315
312 312 312 311 311 310 310 310 309 308 307 306 306 305 288 305 307 308 309 311 309 310 318 320 318 318 316 316 316 316 314 317 315 316 317 318 318 317 316 315 314 314 314
314 312 310 309 311 307 310 310 310 309 308 308 307 306 306 307 307 308 309 310 312 314 315 316 318 318 319 320 320 318 315 315 318 318 315 317 316 316 315 315 314 313 313
314 314 313 312 311 309 309 311 310 303 308 309 308 307 307 307 308 309 309 310 311 311 313 316 316 316 318 321 322 322 321 318 319 318 320 318 316 311 316 316 315 314 315
314 314 314 314 313 312 312 310 306 307 309 309 308 309 308 308 309 309 309 310 310 310 311 311 313 315 314 315 318 320 308 294 313 296 320 320 317 318 316 314 315 315 315
312 311 311 311 311 310 310 308 307 307 305 308 308 309 310 310 309 309 310 311 310 310 311 311 312 312 314 315 315 304 292 290 305 290 317 320 318 318 318 317 316 316 316
Wind_Speed
6 6 7 8 9 10 10 12 13 13 13 14 14 13 15 14 13 13 11 13 15 13 14 12 14 12 9 8 8 8 8 7 10 10 6 6 8 11 9 8 9 10 10
7 7 9 10 11 11 12 12 13 14 13 13 13 14 15 13 12 13 14 14 15 16 15 14 13 8 12 10 9 10 8 7 6 11 6 7 7 8 7 8 6 7 9
9 11 11 11 12 13 13 13 13 13 13 14 12 14 15 14 11 8 13 14 15 13 12 11 10 9 8 8 8 9 6 5 6 5 5 4 4 6 6 7 5 7 4
11 12 12 12 12 12 12 13 13 13 12 12 13 14 14 13 10 8 12 13 11 9 9 9 8 8 8 6 6 4 3 3 3 3 5 6 5 3 5 4 4 6 5
11 11 10 11 11 12 12 12 11 12 12 14 14 15 15 10 6 9 10 10 8 7 8 6 7 4 9 6 3 4 5 5 4 5 5 6 3 2 2 2 5 6 6
10 10 10 11 13 11 13 13 13 12 14 14 14 15 15 7 6 7 10 7 8 8 7 7 5 6 7 5 2 5 8 8 7 6 6 3 3 3 6 5 6 6 3
9 10 11 11 10 9 11 14 14 13 13 14 13 13 13 8 6 7 6 10 6 6 6 6 7 6 6 3 6 8 6 5 6 5 7 4 3 2 7 8 7 7 4
10 11 12 13 13 13 14 11 14 13 12 11 11 12 10 6 10 8 5 9 8 6 6 7 5 7 5 6 6 6 3 4 3 2 7 6 7 7 5 8 11 8 8
11 11 13 13 15 13 15 12 13 13 13 11 10 9 8 8 13 11 7 7 6 6 6 6 7 10 8 9 7 8 3 7 8 11 15 13 9 10 9 9 6 9 7
12 12 12 14 14 13 12 13 13 13 12 10 9 5 5 9 10 12 8 7 5 5 5 8 5 12 11 6 5 6 1 9 11 12 11 9 7 6 1 8 14 14 11
11 11 12 12 14 11 11 12 12 12 11 8 8 8 9 10 12 9 6 7 5 6 7 9 8 12 9 6 7 3 3 3 6 10 9 9 9 7 6 4 7 5 8
13 10 12 11 10 10 12 10 12 11 10 8 8 8 7 9 12 6 4 6 6 5 5 7 8 9 9 9 8 1 1 1 5 4 5 6 7 8 8 6 6 8 7
12 10 9 10 10 10 9 8 8 8 9 10 9 7 7 5 7 4 2 2 2 4 3 11 13 9 10 6 5 4 6 5 1 5 6 5 5 4 9 7 7 8 9
11 10 8 8 6 8 9 7 9 9 9 8 8 8 7 5 5 6 3 3 2 6 9 7 7 7 5 9 6 6 6 0 3 5 5 6 8 8 7 8 8 7 9
9 8 8 6 5 9 6 6 7 6 3 7 7 6 6 6 4 7 6 1 3 3 5 8 8 8 7 7 6 4 4 5 4 3 3 4 7 7 5 4 5 4 6
9 7 6 6 5 6 6 6 8 3 4 4 5 4 4 7 7 7 6 6 7 7 8 5 5 3 6 3 6 6 5 3 4 4 4 5 6 5 5 6 4 5 4
8 7 6 5 5 5 5 6 7 5 7 8 7 7 7 10 6 2 4 3 3 5 7 3 5 7 3 7 3 6 6 5 5 6 5 5 4 5 6 6 6 5 5
10 6 6 7 5 5 5 5 6 6 6 3 10 4 2 0 1 3 4 5 6 7 8 6 6 4 4 3 7 7 5 6 7 7 7 6 5 6 8 8 8 6 4
9 8 6 6 6 5 6 7 6 5 5 5 5 8 9 4 5 7 7 7 7 9 10 8 5 6 5 6 6 5 2 6 7 7 7 7 7 6 7 6 6 2 2
10 11 9 8 7 7 6 6 6 6 5 5 5 3 2 6 5 2 1 5 6 8 6 7 8 7 7 9 5 3 7 7 7 7 7 7 8 8 8 8 7 9 8
9 9 8 8 9 8 7 6 6 6 6 6 5 1 6 5 6 4 5 6 7 6 6 7 7 7 9 8 8 9 7 5 6 7 8 7 8 9 9 8 8 6 6
9 9 9 9 9 10 9 8 7 7 7 7 7 5 9 7 8 6 6 7 5 6 7 6 7 6 8 8 10 10 10 8 3 8 5 5 6 8 9 8 7 6 6
10 11 10 7 9 10 10 11 10 9 9 8 7 7 9 8 8 7 7 7 7 8 8 7 8 8 8 8 5 8 10 9 7 8 6 5 8 6 6 7 9 8 7
8 10 10 9 9 8 9 11 11 12 11 10 9 9 9 8 8 9 8 7 7 8 8 9 8 9 8 7 9 10 9 4 7 7 8 5 5 5 7 6 9 9 8
8 7 9 10 8 8 8 9 7 9 13 11 11 10 9 10 10 10 9 9 9 9 10 9 9 13 14 13 13 13 4 5 7 8 6 9 10 8 6 7 10 10 8
6 6 7 7 7 6 7 6 8 8 8 11 11 12 11 11 10 10 10 11 10 10 11 10 12 16 15 14 17 13 5 3 6 4 7 9 9 8 10 11 14 6 6
Wind_Direction
348 342 329 337 326 325 320 321 314 306 294 289 291 297 293 295 302 290 267 245 240 231 239 242 244 242 248 256 254 252 252 246 252 268 277 286 290 269 278 291 270 244 191
354 339 332 330 324 325 323 313 310 303 296 290 294 296 293 285 277 268 268 247 230 233 229 230 243 239 246 249 248 254 261 236 232 258 281 271 275 278 279 261 241 218 188
337 333 328 326 324 319 315 312 305 301 291 286 296 297 299 290 296 269 264 251 241 230 224 221 229 243 243 253 258 279 277 260 237 241 262 263 264 269 266 238 212 173 169
335 330 330 332 327 321 315 311 312 308 306 302 307 302 297 288 289 285 286 257 245 229 211 222 240 239 244 261 282 308 301 271 255 256 257 266 256 282 266 203 174 154 155
336 337 339 330 324 326 325 316 319 315 318 310 304 299 296 287 313 290 294 264 238 222 210 237 234 278 67 54 311 324 298 269 252 249 238 248 210 202 219 132 111 111 80
342 342 333 329 338 326 319 317 315 319 314 309 298 302 300 287 269 298 289 294 251 234 214 233 199 147 120 99 47 358 313 276 244 215 211 211 155 190 161 126 131 119 97
340 335 335 335 316 322 319 317 318 317 310 305 295 310 301 317 240 276 279 262 265 215 220 218 220 119 126 126 60 354 305 223 279 218 137 144 124 80 129 141 137 104 95
325 328 328 332 330 331 320 328 317 314 308 308 304 314 310 5 307 284 259 245 231 227 195 184 154 134 97 62 14 320 331 112 112 181 104 93 85 74 71 106 103 92 75
324 333 329 321 332 325 339 319 321 319 312 316 309 311 350 357 359 302 234 206 220 200 159 134 135 120 112 63 335 322 17 93 81 55 85 103 109 120 134 108 111 103 97
328 336 327 317 331 325 337 324 326 326 319 320 313 353 28 2 343 321 239 209 183 168 157 143 55 130 128 179 259 292 101 116 111 118 115 115 129 119 273 183 169 146 143
338 332 315 333 325 337 329 335 330 328 328 341 349 13 9 8 336 327 243 245 175 209 172 151 142 129 157 178 268 293 4 94 114 127 132 137 137 141 139 63 35 73 138
327 329 316 337 337 348 345 327 347 347 348 337 10 10 11 4 344 326 276 236 299 244 159 100 108 131 142 178 218 52 343 9 135 131 130 138 145 138 128 117 52 58 46
319 330 329 332 352 336 334 338 328 5 349 355 358 7 354 351 327 15 92 337 286 299 60 82 105 119 130 145 138 212 233 181 135 147 154 150 152 134 112 126 114 110 103
317 328 336 322 339 341 318 342 343 353 9 350 331 4 350 341 358 347 153 168 200 186 117 126 116 111 60 115 174 217 234 138 216 172 160 143 161 164 161 154 147 154 134
321 322 306 322 337 310 335 346 336 21 4 333 354 1 338 333 4 319 309 216 280 109 155 152 174 182 177 175 189 171 167 186 191 147 163 162 166 170 147 168 151 178 153
307 320 346 312 323 315 327 326 139 157 297 223 267 252 319 286 319 307 294 296 289 309 211 187 199 197 198 204 184 177 195 218 197 181 178 191 161 184 170 176 176 191 163
291 301 306 286 309 312 317 316 322 174 201 239 217 240 233 282 333 340 303 257 259 290 242 191 188 207 205 211 186 222 196 197 193 204 196 197 188 155 164 175 189 204 177
276 233 276 302 312 296 294 305 301 311 317 318 201 197 204 230 184 208 223 246 184 216 243 222 217 168 250 221 211 222 212 165 206 206 204 199 213 163 202 175 177 181 158
273 273 269 283 291 322 302 282 286 293 303 300 295 187 176 144 175 185 207 248 228 215 214 201 204 198 242 213 231 222 238 193 185 197 206 205 206 226 201 200 177 101 158
265 246 260 276 275 271 273 277 282 275 268 272 280 293 290 212 216 140 239 249 251 255 243 226 204 195 203 236 164 235 203 209 184 200 201 199 207 221 218 208 218 185 198
266 262 224 247 254 256 267 274 275 277 274 264 262 223 90 282 279 224 191 243 242 239 240 250 203 238 223 220 192 222 205 215 197 210 185 201 197 203 225 223 215 214 232
264 267 265 248 249 258 248 245 258 262 259 261 256 192 161 241 254 243 217 227 218 243 260 240 252 233 255 230 203 209 223 184 200 297 188 201 215 214 207 218 212 219 215
257 259 259 261 261 255 259 254 253 255 253 246 247 255 208 230 237 238 233 231 219 220 214 235 253 256 228 264 275 259 220 212 224 210 244 223 206 223 232 221 245 220 223
261 268 265 254 254 265 260 258 257 251 253 256 236 234 240 245 242 242 248 237 228 233 238 230 228 238 240 254 240 243 251 328 263 205 202 232 238 189 237 240 273 243 224
278 264 267 272 267 263 264 268 273 295 285 245 236 246 239 235 240 240 235 236 236 232 232 236 236 215 219 236 256 241 242 42 305 350 261 236 250 268 236 248 239 227 224
272 269 274 275 275 290 288 290 275 263 265 277 274 264 253 246 240 238 234 232 235 236 235 235 232 235 238 221 220 233 151 187 246 239 272 263 238 247 261 245 246 255 284